EW2654 Weather Reports


time (UTC)temp
C
wind
direction
speed
KPH
gust
KPH
rain 1hr
cm
rain 24hr
cm
rain mn
cm
humidity
%
barometer
mb
20260504100106 3 258 20.9 37.0 0.00 1.80 0.05 96 980.6
20260504081542 3 200 14.5 43.5 0.05 1.80 0.05 96 978.0
20260504044533 3 111 32.2 57.9 0.00 1.75 0.00 96 977.5
20260504043028 3 192 33.8 54.7 0.00 1.75 0.00 96 978.4
20260504041514 3 160 25.7 49.9 0.00 1.75 0.00 96 978.8
20260504040017 3 157 30.6 48.3 0.00 1.75 0.00 95 979.5
20260504034509 3 156 25.7 46.7 0.00 1.75 0.00 95 980.2
20260504033005 3 147 25.7 41.8 0.00 1.75 0.00 95 980.8
20260504031502 3 132 19.3 40.2 0.00 1.75 0.00 96 981.4
20260504030059 4 128 24.1 40.2 0.00 1.75 0.00 97 982.0
20260504024558 4 157 22.5 45.1 0.00 1.75 1.75 98 982.4
20260504023053 5 163 22.5 37.0 0.00 1.75 1.75 98 983.1
20260504021550 5 154 19.3 37.0 0.03 1.75 1.75 99 983.5
20260504020059 5 152 20.9 38.6 0.03 1.75 1.75 99 983.9
20260504014551 5 153 24.1 43.5 0.05 1.75 1.75 99 984.6
20260504013042 4 149 20.9 49.9 0.08 1.75 1.75 99 985.0
20260504011547 4 99 24.1 45.1 0.08 1.73 1.73 99 985.3
20260504010041 4 91 24.1 46.7 0.10 1.73 1.73 99 985.7
20260504004538 3 89 25.7 51.5 0.13 1.68 1.68 99 986.3
20260504003035 3 70 19.3 37.0 0.36 1.65 1.65 99 987.1
20260504001536 3 109 19.3 41.8 0.48 1.65 1.65 99 987.8
20260504000029 3 85 16.1 35.4 0.71 1.63 1.63 99 989.0
20260503234528 2 72 17.7 35.4 0.79 1.52 1.52 99 989.6
20260503233023 2 86 17.7 32.2 0.66 1.30 1.30 98 990.3
20260503231522 2 10 9.7 29.0 0.58 1.17 1.17 98 991.5
20260503230018 3 46 14.5 30.6 0.33 0.89 0.89 99 993.1
20260503224515 2 56 11.3 29.0 0.28 0.71 0.71 99 993.7
20260503223011 2 103 9.7 30.6 0.36 0.61 0.61 98 995.0
20260503221509 2 67 11.3 22.5 0.36 0.56 0.56 98 995.3
20260503220008 2 111 9.7 25.7 0.41 0.53 0.53 98 995.6
20260503214522 2 103 11.3 30.6 0.33 0.43 0.43 98 995.9
20260503213005 2 76 17.7 37.0 0.15 0.25 0.25 98 996.0
20260503211502 2 112 12.9 29.0 0.08 0.18 0.18 98 997.5
20260503210100 2 82 14.5 30.6 0.05 0.15 0.15 98 997.9
20260503204558 2 80 11.3 29.0 0.05 0.10 0.10 98 999.0
20260503203056 2 109 12.9 29.0 0.05 0.10 0.10 97 999.5
20260503201553 1 57 11.3 27.4 0.05 0.10 0.10 97 1000.7
20260503200101 1 73 12.9 24.1 0.03 0.08 0.08 97 1001.2
20260503194556 1 62 6.4 24.1 0.00 0.05 0.05 97 1001.8
20260503193057 1 111 12.9 24.1 0.03 0.05 0.05 96 1002.4
20260503191549 1 85 8.0 20.9 0.05 0.05 0.05 96 1002.8
20260503190049 1 68 6.4 22.5 0.05 0.05 0.05 95 1004.3
20260503184554 1 137 8.0 19.3 0.05 0.05 0.05 95 1004.3
20260503183043 1 70 4.8 22.5 0.00 0.03 0.03 94 1005.9
20260503181555 2 101 8.0 19.3 0.00 0.03 0.03 93 1006.3
20260503180048 2 106 4.8 16.1 0.00 0.03 0.03 93 1007.0
20260503174544 3 100 6.4 16.1 0.00 0.03 0.03 93 1008.2
20260503171516 3 87 6.4 11.3 0.00 0.03 0.03 91 1008.9